Wetbulb
74.98 74.77 75.88 75.89 76.21 77.30 77.05 77.84 77.19 77.08 76.68 75.71 75.77 75.39 76.20 76.14 76.88 76.23 76.49 76.29 75.53 75.67 76.43 75.83 75.61 76.11 74.71 73.45 72.44 70.98 70.03 70.18 67.93 69.32 72.25 73.90 74.02 73.84 74.45 75.01 74.80 75.16 73.67
74.67 74.73 73.85 74.34 74.42 74.62 75.37 76.19 76.66 76.48 76.70 76.38 76.46 75.14 74.20 74.60 76.51 76.48 75.63 76.02 75.56 75.48 75.60 75.66 75.08 75.30 73.77 72.83 72.89 72.03 72.30 72.68 70.68 69.08 71.53 71.84 71.89 73.49 73.54 73.26 74.16 74.48 74.16
72.66 72.67 72.77 72.82 72.80 72.85 73.34 74.75 76.34 75.08 75.87 76.27 75.83 74.98 73.76 73.91 74.39 75.74 76.71 76.37 75.96 75.44 76.20 75.70 75.05 75.03 73.08 73.58 73.60 73.44 73.49 72.81 72.42 70.86 70.10 72.50 72.13 73.24 73.48 73.11 73.45 73.82 74.51
71.34 70.38 71.34 71.96 71.87 71.99 72.47 73.51 74.26 75.59 75.16 75.24 75.29 75.56 74.08 73.03 72.03 73.37 75.74 75.83 76.34 76.43 76.50 75.91 75.58 75.38 74.48 74.26 74.74 74.70 74.35 73.12 72.56 71.60 71.53 71.24 71.55 72.81 72.96 70.99 71.14 72.73 72.16
70.38 69.94 70.19 71.38 71.07 71.46 72.45 72.32 72.69 73.73 74.85 74.93 74.48 75.08 74.28 72.98 71.11 69.83 74.81 75.89 75.66 75.75 75.95 76.35 76.10 75.52 73.04 74.08 75.11 74.96 74.32 72.86 71.78 71.94 70.47 70.71 70.34 70.75 70.21 70.91 70.12 70.97 71.76
69.29 69.10 69.98 70.05 71.03 70.65 70.98 71.32 70.96 71.95 73.18 74.43 74.33 74.66 73.68 74.13 68.72 67.46 72.88 75.11 75.79 75.26 74.83 75.48 76.09 72.92 71.70 68.98 69.71 70.47 73.69 72.90 71.78 71.16 71.02 69.79 70.18 71.00 71.33 70.86 69.86 68.66 66.98
68.66 69.47 69.71 69.47 69.55 69.80 70.49 70.40 69.73 70.36 72.35 72.64 73.33 73.52 73.35 74.61 63.21 63.65 65.22 74.47 74.34 74.85 75.16 75.03 75.75 75.93 72.65 74.85 67.46 67.09 67.87 67.93 69.98 72.70 71.26 71.71 71.92 72.57 71.80 70.93 70.43 69.44 68.81
68.28 68.40 68.73 68.48 67.74 69.57 69.52 70.00 69.36 69.00 70.30 70.40 71.20 72.48 72.21 71.23 62.48 62.12 63.51 72.37 73.81 74.13 74.61 74.86 75.21 75.21 75.34 75.11 74.36 71.09 72.10 72.00 71.51 71.95 73.58 73.31 74.06 73.78 73.63 72.54 71.44 70.46 71.74
66.35 66.83 67.34 67.62 68.10 68.17 68.84 69.61 69.90 69.56 68.57 69.64 69.86 69.45 68.98 69.39 61.22 60.85 63.90 68.98 71.06 73.85 73.90 74.54 74.49 75.30 70.10 64.95 72.78 72.65 72.25 72.27 67.73 65.87 66.86 68.47 65.63 64.13 67.54 72.64 70.10 68.56 67.95
64.91 65.75 65.11 65.70 67.01 67.58 69.40 68.70 68.66 69.33 68.35 69.93 69.12 69.98 67.19 70.17 59.40 58.32 61.49 68.60 67.91 68.20 70.18 74.09 65.84 71.93 63.22 60.85 71.21 72.14 71.76 71.99 72.48 69.52 68.86 64.87 65.10 67.52 63.20 67.34 69.44 67.66 66.96
65.14 65.00 64.12 66.12 65.85 68.42 68.98 70.19 69.49 68.63 70.12 69.10 69.22 67.73 68.47 66.38 64.70 56.87 55.96 68.67 69.05 69.16 69.10 70.47 73.80 61.22 57.95 56.87 58.89 71.57 70.09 70.47 68.58 70.51 69.39 69.46 69.87 69.66 69.96 69.15 69.61 68.83 67.10
64.27 62.91 62.17 64.13 67.13 67.64 68.49 68.62 69.04 67.56 66.14 66.47 65.38 64.58 66.24 65.33 56.00 55.58 53.42 55.58 60.65 69.35 70.72 72.67 69.23 55.96 54.33 55.23 58.86 54.87 57.05 64.28 70.66 70.23 69.06 67.68 67.99 68.13 69.12 69.57 69.79 69.30 69.42
61.11 60.69 61.11 63.39 66.05 67.98 67.28 67.19 67.68 67.81 64.89 62.35 62.66 63.97 64.58 65.42 63.90 53.78 53.06 53.22 55.19 64.81 65.57 60.79 54.31 51.43 51.25 55.42 55.60 56.50 60.13 68.31 68.90 66.82 66.09 66.07 67.29 67.79 67.50 67.68 67.36 66.73 68.09
59.29 60.14 61.42 62.34 64.93 66.10 68.18 66.58 66.18 64.27 64.80 63.85 62.81 61.72 63.11 64.83 63.89 64.46 64.81 62.30 56.85 61.51 60.55 61.13 59.70 59.04 58.13 58.07 59.75 60.11 64.51 66.27 65.89 65.53 65.59 67.09 68.72 67.36 65.78 65.62 64.70 64.96 64.42
59.38 58.82 60.98 62.39 65.02 66.38 62.71 59.25 62.32 56.49 55.36 61.37 64.98 64.38 61.04 60.07 57.13 52.50 53.01 63.01 63.62 59.91 62.23 64.05 63.68 64.36 64.22 64.48 65.06 63.97 65.40 65.57 65.57 66.03 66.66 66.67 66.93 66.37 65.35 65.44 65.67 65.53 62.67
58.97 59.59 60.35 61.07 62.76 63.26 63.91 59.60 49.14 48.79 45.74 44.52 44.14 54.92 55.96 49.42 47.98 47.26 44.88 46.70 49.98 52.70 62.94 63.35 62.53 62.35 62.09 62.85 63.53 63.19 64.39 65.14 66.18 66.27 66.00 66.90 65.35 64.38 64.53 64.48 64.74 64.39 63.74
59.00 59.59 61.06 60.51 61.66 60.93 64.75 64.13 61.28 53.38 46.28 44.14 43.43 43.61 44.11 49.74 47.89 44.34 45.43 46.48 47.26 51.24 64.78 65.77 64.40 64.27 63.90 63.99 64.25 63.51 63.81 63.79 65.16 64.83 65.40 65.58 64.65 64.90 64.39 64.61 65.31 65.26 64.43
60.06 56.44 61.26 60.13 60.93 62.21 60.35 62.10 62.96 61.31 60.66 59.81 48.37 49.47 45.37 45.99 44.90 44.90 45.06 48.16 61.35 56.47 63.48 63.59 62.85 63.53 62.27 63.19 63.19 63.26 63.02 63.85 64.93 64.85 63.67 64.93 65.29 64.50 63.08 63.04 63.18 63.26 62.84
61.56 59.58 60.30 62.60 63.28 60.01 62.08 63.92 62.07 61.44 61.28 60.25 60.18 51.34 48.62 44.36 44.36 43.99 44.68 57.72 61.46 62.53 62.49 62.81 62.71 62.39 62.11 62.44 62.43 62.52 63.20 62.61 63.06 63.99 64.05 65.00 63.66 63.01 63.26 63.22 62.24 54.03 56.20
62.36 60.56 59.53 62.73 62.58 63.21 61.68 60.24 59.71 59.25 61.81 62.67 59.94 60.14 59.77 57.34 60.37 62.26 63.89 64.62 61.82 62.08 62.95 63.04 63.55 63.82 63.18 63.54 63.86 63.37 62.83 61.71 63.26 62.84 62.65 63.06 63.02 62.38 60.88 60.46 60.06 59.14 59.01
61.83 61.47 59.96 60.41 60.15 59.56 60.94 62.36 58.77 59.04 59.86 61.28 60.76 61.33 55.81 61.66 60.22 60.64 62.58 61.63 63.73 62.75 62.43 62.44 62.59 63.12 63.61 64.28 64.29 63.50 62.82 62.57 63.28 62.90 62.95 61.63 62.86 60.92 60.95 61.18 60.55 60.19 59.68
60.65 61.81 61.50 60.89 60.11 58.01 60.21 61.34 63.09 61.20 61.08 61.87 62.52 59.29 49.84 61.59 62.25 60.86 61.21 62.15 63.13 64.52 64.97 63.39 62.06 62.55 62.95 61.72 62.95 61.68 61.40 61.62 62.20 62.08 61.19 62.06 62.46 61.10 61.19 60.69 59.39 59.77 59.55
61.92 61.05 60.73 57.98 61.75 57.67 60.26 59.23 60.96 62.04 59.09 60.45 61.64 60.53 61.03 61.69 61.27 61.99 60.32 61.63 64.48 63.96 63.62 63.63 63.02 62.08 63.22 63.71 63.99 64.08 60.87 60.44 61.25 61.65 61.07 60.91 60.44 60.28 60.39 60.23 59.78 59.34 60.16
60.61 59.04 60.04 58.03 57.74 60.56 57.45 57.09 60.84 55.16 58.74 59.58 60.22 61.39 62.43 60.72 61.60 60.60 62.14 63.63 63.69 64.36 64.53 63.84 63.35 62.68 61.79 61.21 62.18 61.41 63.19 60.83 60.06 59.72 60.33 59.79 60.05 56.65 59.61 60.44 59.99 58.28 58.46
59.42 58.54 60.90 60.15 57.27 58.26 58.72 58.81 60.81 58.46 59.96 59.56 59.52 60.35 60.77 62.35 62.07 61.62 61.41 63.02 64.04 61.76 62.39 63.15 63.26 63.42 63.47 64.92 58.42 56.96 45.05 39.33 53.72 45.85 58.34 58.92 58.54 59.38 59.91 59.10 59.88 58.44 59.01
58.24 58.10 58.67 59.81 59.83 60.91 60.77 58.62 58.86 61.60 61.09 62.25 58.23 58.06 60.95 60.98 61.03 61.89 62.61 62.06 62.40 63.25 64.05 63.17 63.29 63.48 63.73 63.24 61.73 43.57 36.22 35.89 47.58 43.66 56.29 56.84 55.70 56.06 58.03 58.23 58.61 58.93 59.04
MSLP
1007.53 1007.51 1007.38 1007.23 1007.18 1007.09 1007.01 1006.77 1006.98 1007.25 1007.40 1007.37 1007.45 1007.61 1007.85 1007.97 1008.37 1008.93 1009.41 1009.83 1010.26 1010.53 1010.92 1011.22 1011.51 1011.90 1012.37 1012.93 1013.51 1013.94 1014.13 1014.20 1013.99 1013.35 1013.50 1012.98 1012.85 1012.97 1012.63 1012.79 1012.94 1012.97 1012.89
1007.05 1007.03 1007.00 1006.93 1006.85 1006.65 1006.47 1006.30 1006.43 1006.45 1006.49 1006.39 1006.43 1006.36 1006.47 1006.03 1007.29 1007.64 1008.06 1008.63 1008.99 1009.25 1009.68 1010.30 1010.73 1011.29 1011.92 1012.25 1012.65 1013.07 1013.06 1013.04 1013.35 1013.12 1013.04 1012.80 1012.79 1012.71 1012.80 1012.77 1012.54 1012.25 1012.15
1006.62 1006.52 1006.44 1006.41 1006.54 1006.40 1006.27 1005.90 1005.56 1005.67 1005.69 1005.59 1005.66 1005.65 1005.68 1005.85 1006.09 1005.69 1006.97 1007.48 1008.02 1008.33 1008.58 1009.09 1009.70 1010.46 1011.03 1011.36 1011.68 1011.85 1011.88 1012.01 1012.28 1012.55 1012.50 1012.42 1012.26 1012.14 1012.16 1012.30 1012.31 1012.20 1011.75
1007.03 1006.86 1006.44 1006.38 1006.27 1006.18 1006.01 1005.78 1005.41 1004.96 1004.84 1004.81 1004.87 1004.79 1004.87 1005.26 1005.74 1006.54 1006.59 1006.25 1006.94 1007.22 1007.63 1008.05 1008.64 1009.09 1009.77 1010.28 1010.81 1010.99 1011.15 1011.30 1011.58 1011.77 1011.87 1011.88 1011.67 1011.35 1011.63 1011.90 1012.00 1011.80 1011.67
1007.01 1006.61 1006.44 1006.28 1005.97 1005.89 1005.62 1005.50 1005.26 1004.86 1004.20 1004.08 1004.01 1003.68 1004.01 1004.40 1004.82 1005.21 1005.63 1004.61 1005.70 1006.41 1006.73 1007.06 1007.51 1008.00 1008.34 1009.10 1009.79 1010.20 1010.43 1010.68 1010.83 1011.01 1011.18 1011.28 1011.08 1010.91 1011.20 1011.35 1011.54 1011.35 1011.18
1007.01 1006.62 1006.42 1006.03 1005.70 1005.49 1005.33 1005.22 1005.04 1004.42 1003.97 1003.36 1003.40 1002.88 1002.71 1003.13 1003.18 1001.53 1000.99 1003.39 1004.41 1005.26 1005.83 1006.24 1006.49 1007.02 1007.52 1007.93 1008.76 1009.31 1009.44 1009.79 1010.05 1010.26 1010.49 1010.72 1010.51 1010.41 1010.64 1010.98 1011.16 1011.19 1010.92
1006.73 1006.25 1006.00 1005.75 1005.33 1005.19 1004.90 1004.70 1004.61 1004.13 1003.63 1003.15 1002.89 1002.63 1002.30 1001.83 1002.04 1002.17 1002.60 1002.92 1004.13 1004.62 1005.07 1005.52 1005.72 1005.93 1006.74 1007.32 1007.91 1008.44 1008.82 1008.86 1009.17 1009.51 1009.77 1009.89 1009.97 1009.94 1010.29 1010.60 1010.75 1010.81 1010.64
1006.28 1006.01 1005.79 1005.39 1005.08 1004.76 1004.46 1004.22 1004.14 1003.88 1003.46 1003.21 1002.94 1002.74 1002.59 1002.67 1002.77 1002.78 1003.10 1003.43 1003.73 1004.06 1004.44 1004.87 1005.26 1005.47 1005.83 1006.37 1006.98 1007.75 1007.99 1008.35 1008.69 1009.00 1009.18 1009.40 1009.61 1009.68 1009.99 1010.06 1010.38 1010.63 1010.45
1006.17 1005.87 1005.82 1005.46 1004.91 1004.47 1004.26 1003.76 1003.70 1003.61 1003.31 1003.02 1002.96 1002.86 1002.97 1003.19 1003.14 1003.42 1003.45 1003.76 1003.63 1003.57 1003.94 1004.51 1004.88 1005.14 1005.28 1005.59 1006.26 1006.61 1007.07 1007.19 1007.58 1008.13 1008.61 1008.61 1009.13 1009.41 1009.47 1009.82 1010.21 1010.55 1010.37
1006.52 1006.30 1005.97 1005.55 1004.97 1004.26 1003.78 1003.57 1003.39 1003.21 1002.91 1002.68 1002.67 1002.59 1002.71 1002.79 1002.79 1003.32 1003.53 1003.65 1003.69 1003.90 1004.16 1004.18 1004.41 1004.69 1004.92 1005.31 1005.79 1005.81 1006.39 1006.50 1007.07 1007.66 1008.49 1008.75 1008.94 1008.68 1009.37 1009.99 1010.02 1010.49 1010.19
1006.62 1006.46 1005.99 1005.58 1005.03 1004.33 1003.75 1003.36 1003.16 1002.89 1002.55 1002.37 1002.18 1002.35 1002.41 1002.65 1003.19 1003.57 1003.78 1003.71 1003.86 1003.80 1003.89 1004.09 1004.00 1004.65 1005.02 1005.10 1005.17 1005.48 1005.69 1006.08 1006.78 1007.34 1007.95 1008.38 1008.82 1008.74 1009.07 1009.54 1009.51 1009.74 1009.74
1006.52 1006.38 1006.36 1005.67 1004.83 1004.05 1003.49 1003.46 1003.20 1003.08 1002.92 1002.98 1002.73 1003.03 1003.05 1003.09 1003.50 1003.67 1003.82 1004.07 1003.90 1003.69 1003.80 1003.72 1004.10 1004.62 1005.05 1005.17 1005.59 1006.02 1006.01 1006.27 1006.60 1007.25 1008.04 1008.52 1008.76 1008.82 1008.93 1009.42 1009.44 1009.23 1009.22
1006.65 1006.48 1006.39 1005.53 1004.81 1004.21 1003.94 1003.52 1003.44 1003.46 1003.59 1003.59 1003.52 1003.29 1003.35 1003.21 1003.47 1003.89 1003.78 1003.94 1004.16 1004.31 1004.34 1004.34 1004.50 1004.90 1005.44 1005.56 1005.57 1005.92 1006.18 1006.30 1006.78 1007.31 1007.77 1008.01 1008.41 1008.50 1008.80 1009.24 1009.30 1009.35 1009.39
1006.85 1006.68 1006.23 1005.28 1004.55 1004.32 1004.16 1004.03 1003.92 1004.13 1004.01 1004.11 1003.94 1003.72 1003.84 1003.83 1004.07 1003.95 1003.85 1003.97 1004.28 1004.60 1004.70 1004.73 1004.86 1004.98 1005.25 1005.61 1005.91 1005.95 1005.95 1006.13 1006.47 1006.97 1007.49 1007.75 1007.96 1008.48 1008.68 1008.91 1009.09 1009.19 1009.26
1006.82 1006.66 1006.18 1004.81 1004.02 1003.97 1004.33 1004.75 1004.67 1004.93 1004.93 1004.58 1004.38 1004.27 1004.43 1004.59 1005.12 1005.13 1005.03 1004.65 1004.46 1004.59 1004.76 1004.96 1005.21 1005.41 1005.65 1005.71 1005.73 1005.84 1005.98 1006.10 1006.41 1006.86 1007.24 1007.54 1007.82 1008.03 1008.12 1008.39 1008.53 1008.84 1009.07
1006.73 1006.50 1005.90 1004.76 1003.74 1003.40 1003.87 1004.70 1005.18 1005.08 1005.09 1004.85 1004.73 1004.26 1004.87 1005.18 1005.70 1005.55 1005.58 1005.48 1005.16 1005.01 1004.92 1005.03 1005.30 1005.41 1005.47 1005.63 1005.84 1006.00 1005.94 1005.88 1006.12 1006.52 1006.81 1007.16 1007.09 1007.49 1007.66 1007.83 1008.09 1008.42 1008.52
1006.53 1006.17 1005.38 1004.10 1003.56 1003.27 1002.98 1003.39 1004.44 1005.44 1005.48 1005.08 1004.84 1004.86 1005.04 1005.33 1005.80 1005.81 1005.79 1005.65 1005.18 1005.35 1004.64 1004.63 1004.71 1004.78 1005.16 1005.27 1005.35 1005.78 1005.77 1005.66 1005.88 1006.10 1006.52 1006.58 1006.75 1006.98 1007.27 1007.30 1007.46 1007.46 1007.70
1005.76 1005.06 1004.62 1003.69 1003.07 1002.49 1002.43 1002.43 1002.76 1003.67 1004.47 1004.88 1005.03 1005.10 1005.17 1005.37 1005.58 1005.57 1005.47 1005.01 1004.78 1004.73 1003.94 1004.19 1004.55 1004.79 1005.02 1005.15 1005.38 1005.81 1005.83 1005.88 1005.86 1006.16 1006.41 1006.56 1006.81 1006.87 1007.16 1007.13 1007.17 1007.33 1007.63
1004.58 1003.71 1003.81 1003.03 1002.79 1002.27 1002.07 1001.82 1001.79 1002.39 1003.31 1003.83 1004.58 1005.31 1005.28 1005.24 1005.35 1005.39 1005.49 1005.17 1004.35 1003.93 1004.36 1004.59 1004.91 1005.07 1005.27 1005.57 1005.92 1006.05 1006.13 1006.57 1006.52 1006.42 1006.44 1006.70 1006.85 1006.87 1007.21 1007.22 1007.49 1007.74 1007.97
1003.56 1003.22 1002.92 1002.49 1002.15 1001.84 1001.70 1001.64 1001.70 1002.13 1002.44 1003.04 1003.92 1004.27 1004.72 1005.05 1004.95 1004.58 1004.47 1003.93 1003.54 1003.62 1004.10 1004.40 1004.68 1004.87 1005.10 1005.30 1005.45 1005.76 1006.28 1006.56 1006.53 1006.61 1006.70 1006.61 1006.68 1006.95 1007.09 1007.18 1007.54 1007.79 1007.82
1002.86 1002.33 1002.36 1002.07 1001.75 1001.58 1001.47 1000.94 1001.43 1001.99 1002.55 1002.75 1003.12 1003.35 1003.31 1003.91 1003.92 1003.93 1003.92 1003.51 1003.25 1003.49 1003.80 1004.17 1004.44 1004.69 1004.91 1005.11 1005.19 1005.62 1005.89 1006.09 1006.15 1006.06 1006.10 1006.26 1006.43 1006.83 1006.98 1007.01 1007.20 1007.28 1007.63
1002.81 1002.02 1001.97 1001.71 1001.59 1001.46 1001.11 1000.92 1000.71 1001.27 1001.64 1001.93 1002.54 1002.99 1003.00 1003.22 1003.13 1003.22 1003.25 1003.03 1003.01 1003.20 1003.35 1003.71 1004.02 1004.25 1004.46 1004.81 1005.00 1005.23 1005.41 1005.48 1005.55 1005.56 1005.66 1005.81 1005.95 1006.30 1006.39 1006.39 1006.68 1006.92 1007.19
1002.51 1002.15 1001.42 1001.44 1001.58 1001.29 1001.04 1000.96 1000.73 1000.88 1001.31 1001.49 1001.84 1002.40 1002.60 1002.47 1002.33 1002.41 1002.80 1002.90 1003.02 1003.17 1003.49 1003.57 1003.57 1003.59 1003.91 1004.30 1004.63 1004.80 1005.03 1005.11 1005.20 1005.40 1005.67 1005.70 1005.92 1006.00 1006.24 1006.43 1006.79 1007.01 1007.22
1002.52 1002.05 1001.37 1001.18 1001.26 1000.83 1001.33 1001.45 1000.91 1001.26 1001.43 1001.40 1001.28 1001.58 1001.76 1001.79 1001.72 1001.68 1002.12 1002.26 1002.68 1003.03 1003.26 1003.59 1003.64 1003.87 1004.05 1004.34 1004.56 1004.64 1004.72 1004.95 1005.09 1005.51 1005.82 1006.02 1006.05 1006.21 1006.03 1006.34 1006.56 1006.67 1007.01
1003.02 1002.02 1001.14 1001.19 1001.76 1001.19 1000.98 1000.98 1000.85 1001.02 1001.13 1001.37 1001.19 1001.41 1001.62 1001.80 1001.78 1001.80 1001.86 1002.14 1002.62 1002.96 1003.07 1003.36 1003.66 1003.84 1004.22 1004.31 1004.64 1004.89 1005.29 1005.39 1005.66 1005.88 1005.95 1006.20 1006.15 1006.04 1005.72 1005.93 1006.14 1006.29 1006.66
1004.49 1003.42 1002.82 1002.51 1001.82 1001.23 1001.18 1001.09 1000.95 1000.89 1000.88 1001.05 1001.34 1001.32 1001.42 1001.71 1001.66 1001.78 1002.00 1002.37 1002.50 1002.74 1003.13 1003.32 1003.50 1003.73 1003.89 1003.98 1004.21 1005.08 1005.46 1005.54 1005.75 1005.90 1005.94 1006.22 1006.18 1005.97 1005.66 1005.59 1005.63 1005.86 1006.14
Wind_Speed
6 7 7 8 9 9 11 12 15 15 16 18 19 15 18 18 18 18 16 16 17 13 11 11 11 9 6 5 5 6 7 7 10 8 7 6 7 8 6 5 5 6 4
7 7 9 9 10 11 11 11 12 15 16 18 16 17 14 19 17 18 19 17 17 15 16 13 11 7 8 7 6 10 9 8 8 11 7 7 6 8 7 8 4 4 5
8 9 10 8 9 10 11 10 10 12 15 16 16 16 16 16 19 18 17 18 17 16 12 13 12 11 11 9 10 10 9 8 7 6 7 4 6 5 5 5 4 5 3
10 9 8 9 10 9 11 11 11 11 14 14 16 16 13 13 8 25 19 18 16 14 13 13 14 15 14 11 10 10 7 5 6 7 6 4 5 3 3 3 4 4 4
12 13 10 10 11 10 8 9 11 13 13 13 13 17 15 15 12 23 26 17 15 14 13 13 14 15 16 14 8 11 9 7 6 5 5 6 6 3 4 4 4 4 7
11 11 12 12 11 11 10 7 10 12 13 13 13 14 15 12 19 29 22 13 14 13 13 13 13 14 14 17 17 14 12 10 10 6 5 7 6 3 3 4 4 4 3
10 10 10 11 11 11 10 7 10 10 10 10 10 12 12 10 2 4 6 9 11 11 12 12 11 11 13 13 14 15 10 10 10 9 8 6 3 2 4 4 5 5 4
8 8 8 6 6 8 10 8 9 9 7 6 6 6 4 3 6 6 3 5 10 10 11 13 12 12 12 14 11 12 12 10 9 8 7 5 4 3 4 4 5 5 4
8 7 9 11 6 6 5 5 7 7 8 7 6 6 6 6 8 8 4 3 2 9 10 11 13 13 12 13 11 12 13 13 12 13 12 9 9 3 1 2 5 4 5
8 8 7 9 10 9 3 5 4 6 7 6 8 7 9 6 10 14 7 2 3 3 5 9 12 12 11 13 14 12 13 12 10 7 6 3 4 3 4 4 4 6 5
5 8 7 9 9 5 5 5 5 6 4 5 6 3 2 3 4 7 7 4 6 5 6 6 7 8 9 11 11 10 11 5 6 5 3 3 3 3 3 5 5 6 8
4 7 11 11 8 8 8 6 5 5 6 6 5 2 2 5 6 6 1 9 5 2 4 4 3 8 6 7 5 8 9 6 3 3 3 3 1 2 4 5 6 6 7
6 8 11 15 9 6 6 7 3 2 2 2 3 1 1 1 4 4 2 3 4 1 2 4 10 11 9 7 10 9 6 4 3 3 3 2 4 4 2 3 2 3 6
7 8 11 14 7 5 3 4 4 4 2 2 0 1 3 3 3 1 3 4 5 5 5 4 4 6 5 7 4 4 3 3 4 3 1 4 5 3 4 3 3 2 2
4 8 13 10 7 4 4 4 4 3 2 3 2 2 2 3 3 4 4 2 2 3 6 4 3 2 2 2 2 3 3 4 4 4 5 5 4 4 3 3 3 3 3
4 7 10 9 6 4 5 4 9 6 1 4 3 6 5 9 4 5 7 6 2 5 3 4 3 3 2 2 1 1 1 4 3 2 1 3 3 3 3 3 4 5 5
6 8 11 9 7 5 4 5 5 3 3 6 9 10 10 8 4 3 4 7 7 5 3 5 6 5 5 5 4 4 4 4 6 5 4 3 3 3 4 4 3 3 3
10 19 11 7 8 6 3 5 5 6 6 4 2 2 6 4 1 4 7 8 4 4 1 5 4 3 3 4 4 4 3 3 3 3 3 3 2 1 2 2 2 2 3
12 3 5 6 3 3 5 4 4 7 6 5 5 1 3 2 3 5 2 4 5 6 5 4 5 4 3 3 3 2 4 3 2 1 1 1 1 1 1 1 2 1 0
10 8 6 4 6 4 5 3 3 5 8 7 6 5 4 1 3 4 3 5 1 5 5 5 4 4 4 4 4 4 3 2 2 3 3 3 2 1 2 3 1 2 1
8 6 8 6 7 4 7 4 5 6 2 6 5 7 13 7 4 4 2 4 1 6 6 6 5 4 4 1 3 6 6 4 4 4 4 3 3 5 4 4 4 3 4
6 6 7 6 1 2 4 5 2 6 6 7 6 4 4 5 6 4 4 3 5 2 2 4 5 7 8 5 4 3 4 6 5 3 1 3 4 3 3 2 3 1 3
7 11 5 5 5 3 3 4 3 3 1 4 4 4 4 5 5 6 4 4 4 4 3 1 3 2 7 6 4 2 2 3 4 3 3 4 2 3 3 2 2 0 1
8 9 6 4 5 4 4 6 4 2 1 6 2 4 4 3 4 7 7 5 5 4 3 4 4 3 5 3 2 4 2 4 5 6 6 6 3 4 3 2 1 1 2
10 8 3 1 5 3 2 4 3 3 7 6 5 4 2 2 3 4 3 5 4 3 4 4 3 4 4 2 7 8 8 9 7 4 2 4 6 8 4 5 4 4 4
9 10 10 12 11 5 4 3 5 3 3 1 0 2 4 4 3 2 2 4 3 3 3 3 5 6 5 4 2 12 7 8 7 6 3 3 5 6 5 5 7 4 3
Wind_Direction
257 268 283 272 257 267 252 240 233 231 229 234 239 243 216 208 205 209 213 214 216 220 213 213 216 214 204 189 195 220 231 229 245 260 258 250 199 211 213 215 202 217 192
253 251 254 256 260 254 251 248 249 238 235 237 238 239 229 222 221 207 210 216 219 208 211 211 217 183 197 204 221 214 220 221 219 246 259 272 216 200 216 234 233 243 210
271 262 256 259 281 284 289 289 246 243 245 239 242 238 230 221 239 217 213 212 219 220 212 205 207 195 208 209 213 226 216 218 216 224 255 254 245 210 199 213 223 243 236
313 314 309 298 283 275 285 297 298 259 247 240 237 238 222 208 222 260 227 216 218 218 213 208 206 202 207 213 223 223 233 235 215 222 227 249 249 195 155 227 235 231 243
302 296 293 283 285 279 273 288 289 294 265 247 240 241 225 210 217 246 226 202 206 212 217 214 210 209 198 201 208 221 215 216 224 208 224 238 252 173 186 219 248 255 230
291 291 288 280 279 274 270 264 280 282 288 253 244 245 247 230 221 216 200 203 203 205 212 220 215 196 197 198 207 224 205 208 215 214 210 228 239 200 184 211 230 247 256
286 296 295 282 279 279 272 263 272 281 295 271 255 254 249 252 172 182 197 213 212 213 212 219 218 210 203 208 216 219 195 204 209 212 226 236 267 223 207 225 235 253 241
290 292 295 288 293 292 274 257 259 272 271 268 260 258 264 151 160 102 122 205 217 219 220 226 219 226 210 205 189 205 212 201 205 217 209 230 226 238 236 217 222 260 278
308 311 328 312 292 296 302 304 282 260 263 254 233 212 210 198 178 193 150 223 280 221 220 224 224 223 226 200 206 201 206 216 192 201 217 215 166 162 222 205 243 212 236
316 323 316 316 310 314 329 296 287 268 257 251 233 213 218 220 197 222 194 172 210 240 274 240 230 227 242 220 208 203 200 208 201 182 200 175 203 189 269 242 264 238 244
320 330 312 297 302 307 325 325 292 280 297 281 254 219 194 45 80 225 224 224 232 218 223 240 222 212 226 223 205 215 209 190 226 186 170 185 203 201 211 226 241 243 270
336 337 319 302 305 322 340 325 343 19 31 26 49 27 12 81 51 59 5 241 343 320 297 281 98 144 159 159 156 118 120 145 148 132 125 176 214 271 257 261 280 288 283
356 345 315 299 297 299 321 315 8 0 94 53 69 321 38 171 117 115 45 246 192 234 350 88 113 112 115 92 135 146 141 117 129 130 143 171 215 205 169 186 113 51 359
7 330 295 287 276 293 335 14 57 30 12 129 111 63 309 16 33 279 138 88 136 117 111 75 100 102 103 124 125 144 147 145 147 143 187 210 215 176 163 161 157 155 135
350 312 293 282 248 231 72 16 83 47 14 354 38 91 73 62 42 349 343 38 100 116 130 128 120 116 134 141 168 158 170 162 168 180 202 204 178 170 168 163 162 174 194
320 295 294 297 295 251 165 140 43 58 52 64 14 66 74 83 84 47 29 358 229 206 174 146 144 142 123 118 124 34 67 165 169 173 190 221 159 182 203 193 196 203 212
257 272 275 278 286 287 223 167 167 143 84 56 70 77 66 120 129 55 349 328 232 230 218 154 148 146 162 169 185 201 215 198 193 189 199 203 188 213 224 238 261 215 241
248 250 256 266 275 280 294 204 185 182 177 163 202 246 126 122 339 339 342 316 227 201 81 106 96 98 71 59 49 52 52 50 46 66 87 44 17 80 343 343 24 37 19
261 247 234 269 217 315 284 297 255 182 164 169 132 244 225 204 282 270 275 257 282 106 90 74 123 114 102 90 95 70 54 56 9 88 101 247 94 266 177 77 92 229 145
262 239 236 253 288 241 269 270 47 17 173 164 157 185 158 136 231 252 266 281 110 109 100 106 92 111 138 146 157 147 142 186 167 167 195 147 141 71 64 80 59 2 315
291 218 230 245 258 283 260 201 139 119 120 120 137 173 179 193 198 221 246 265 127 130 138 135 149 129 106 201 171 184 167 177 188 182 163 145 152 143 191 178 197 158 74
268 265 213 257 44 326 318 353 291 167 192 157 158 175 181 221 190 209 230 202 126 73 142 162 171 177 186 166 174 218 204 170 176 199 243 170 175 162 232 179 105 102 148
303 303 277 187 207 188 260 248 280 66 171 148 141 143 199 238 236 204 135 115 114 130 88 193 323 227 138 150 175 219 149 119 132 93 16 12 23 71 78 41 98 193 190
273 273 266 297 328 234 98 340 128 103 329 328 240 179 222 230 244 144 186 147 156 167 173 204 229 120 95 69 95 42 23 93 72 58 37 349 309 190 187 170 304 34 89
329 324 254 280 188 277 296 218 217 244 179 212 228 160 269 50 327 352 160 143 167 205 215 159 150 122 97 124 134 116 114 84 82 93 23 325 302 301 259 204 193 210 200
352 0 24 12 350 331 325 313 258 254 303 318 206 299 166 194 225 177 161 174 192 162 138 162 175 188 189 217 92 129 127 134 143 132 109 288 283 284 277 317 175 191 207